Wind_Speed
68 68 69 71 75 81 85 87 89 90 89 83 81 79 78 78 79 83 85 87 88 89 92 91 81 74 73 69 69 65 58 52 47 46 46 46 45 46 46 49 51 48 41 41
59 63 62 64 66 65 70 77 82 85 82 78 77 76 76 77 78 80 82 83 85 86 80 76 75 72 68 66 62 59 53 49 45 44 45 45 46 46 46 46 47 41 39 38
46 50 53 49 50 56 60 66 70 71 71 71 73 74 74 74 74 76 78 79 77 72 72 74 72 68 68 65 58 53 49 47 44 42 43 44 47 47 46 46 42 36 37 36
38 42 41 44 49 52 54 57 58 60 65 66 67 70 72 72 73 73 69 66 66 70 73 72 69 69 67 62 56 52 48 44 44 42 42 43 45 47 45 45 44 39 34 36
33 34 34 36 42 46 48 48 47 52 56 57 62 63 60 59 61 58 58 64 69 72 73 70 71 65 61 56 53 50 47 44 42 41 42 43 44 46 46 45 44 39 35 36
30 31 32 36 38 37 35 39 42 42 45 50 48 46 50 48 50 56 62 67 71 72 71 70 63 58 55 51 49 47 45 42 41 40 41 41 43 45 45 45 44 42 36 38
27 25 28 33 33 32 34 34 34 33 32 35 39 39 40 47 54 60 65 70 69 69 66 60 57 53 50 47 46 44 43 40 39 40 40 40 41 44 45 44 43 43 37 39
24 23 24 26 27 27 25 24 25 28 29 29 33 39 46 51 58 64 67 66 65 61 58 55 52 49 46 43 41 39 39 38 36 36 38 39 40 42 44 44 44 43 41 39
20 24 26 25 21 18 19 23 23 21 25 32 39 42 48 56 60 62 63 61 58 56 54 51 46 43 40 37 35 34 33 33 32 32 33 36 39 40 43 45 45 46 42 42
20 22 23 20 14 10 13 15 20 26 32 36 40 47 53 56 60 60 57 55 54 51 47 42 39 35 33 30 29 28 28 29 28 29 30 31 33 37 42 45 45 47 45 45
23 17 8 7 8 12 15 21 28 30 33 38 45 48 53 57 57 53 52 50 45 41 38 34 31 28 27 25 23 23 24 25 26 26 27 29 30 33 37 43 46 45 46 48
7 7 8 9 10 15 21 25 29 31 37 40 44 50 55 53 50 48 45 39 36 33 30 28 25 23 22 21 20 18 19 21 23 25 26 26 29 30 34 39 44 48 46 49
10 9 10 12 17 22 25 26 30 34 36 42 47 50 50 47 44 42 37 33 30 27 24 22 20 18 18 17 16 16 16 16 19 22 25 26 27 29 30 34 37 43 50 52
10 12 17 20 22 23 27 31 30 34 39 43 44 47 45 42 41 37 31 28 24 22 20 17 17 18 16 14 12 11 12 14 15 17 20 23 26 28 31 33 37 39 43 48
17 20 21 22 25 30 28 26 32 36 38 40 43 42 41 40 38 31 27 24 21 19 19 18 19 18 16 14 13 12 11 12 13 15 18 20 23 26 29 33 35 41 42 47
19 21 23 27 28 23 24 29 33 35 36 39 40 40 39 38 34 29 25 22 20 21 21 17 16 17 18 16 15 16 17 17 18 18 18 20 22 25 28 31 34 38 44 47
21 22 24 23 23 24 28 32 32 32 35 36 37 37 35 35 32 27 24 21 22 19 20 20 20 19 17 18 18 20 20 22 23 24 25 26 28 29 31 33 35 39 44 46
19 20 20 21 22 26 30 30 28 32 34 33 34 35 34 34 32 26 23 23 23 23 23 23 22 24 24 24 23 25 27 27 26 27 29 31 32 33 35 36 38 41 44 48
17 18 19 19 21 25 28 27 29 32 33 34 32 32 33 32 31 28 26 25 26 24 25 28 29 30 31 30 30 31 31 32 33 33 34 34 35 36 38 39 40 42 45 48
22 24 24 25 26 29 31 30 31 33 35 34 33 31 30 30 30 29 28 28 28 28 30 32 34 36 37 37 37 37 39 40 40 40 40 41 41 41 41 43 44 45 47 49
29 31 31 31 32 35 35 34 35 36 37 36 34 34 31 30 30 30 30 29 30 30 33 36 39 40 42 44 45 45 45 46 47 48 48 49 48 48 48 49 49 49 50 51
34 34 34 36 38 38 37 38 38 37 38 39 37 37 36 35 33 31 31 31 32 32 34 37 40 43 45 47 49 50 51 52 53 55 54 54 54 53 53 54 54 54 54 55
35 36 38 38 40 41 41 41 42 39 39 40 41 42 40 39 38 36 35 35 35 36 37 39 42 44 46 47 49 51 53 54 56 58 58 58 58 57 56 57 57 57 57 58
42 40 40 42 44 45 45 45 44 42 42 43 45 46 46 43 41 41 40 40 41 42 43 45 47 48 50 51 52 54 55 55 56 58 58 59 60 59 59 58 58 59 59 60
46 46 47 46 47 47 48 48 47 46 46 47 48 49 49 49 47 45 46 47 48 49 49 52 54 54 55 56 55 56 56 58 58 58 59 59 59 58 58 58 58 60 61 60
49 49 50 50 49 49 50 51 49 50 51 51 51 51 53 53 51 50 51 52 53 53 53 56 60 60 60 60 60 59 58 59 59 60 59 59 58 57 58 58 59 59 59 60
54 55 54 54 52 52 53 52 53 54 55 55 54 53 55 55 54 53 54 57 57 57 58 61 63 64 64 63 62 61 60 59 60 59 58 57 55 55 57 57 58 59 60 62
Wind_Direction
258 258 256 256 253 254 256 258 261 264 267 267 268 268 271 273 276 278 281 284 289 292 293 295 294 295 295 294 294 294 292 287 281 279 276 273 271 266 268 271 278 281 273 253
259 258 255 251 252 256 258 257 257 259 265 267 267 269 271 273 278 281 285 288 290 292 291 292 295 295 295 295 295 292 288 284 281 278 274 272 269 267 266 264 272 279 278 263
254 254 253 256 257 253 253 254 255 259 261 262 265 271 274 278 282 285 287 288 289 289 291 294 295 295 297 297 293 289 286 283 280 277 270 269 266 263 267 272 272 271 273 265
253 255 253 248 247 249 250 252 255 257 260 264 268 271 275 281 283 284 284 285 288 291 293 295 296 297 297 294 291 288 286 281 278 276 270 267 262 259 261 267 274 273 275 266
248 250 251 249 244 245 248 252 255 259 263 267 270 273 278 278 282 283 284 287 291 292 295 296 298 298 295 291 288 285 284 282 277 274 270 265 258 256 258 263 270 270 266 261
243 243 245 246 244 246 246 248 252 257 259 264 273 276 277 280 283 285 288 290 291 295 296 298 298 296 292 289 285 282 281 280 276 273 268 265 260 253 253 257 266 268 264 256
241 239 236 234 235 234 238 245 251 261 264 267 276 278 282 282 284 288 290 291 294 297 297 298 297 296 293 290 286 283 280 279 276 273 268 267 259 255 253 255 258 265 264 253
237 228 226 230 232 234 237 245 255 261 265 274 278 279 281 287 290 289 291 295 298 298 300 300 300 298 295 291 287 283 279 277 275 271 266 268 261 255 252 253 256 257 262 255
212 213 220 224 229 231 245 256 259 264 270 273 277 284 290 291 292 293 297 299 301 301 301 300 301 300 298 294 288 283 278 276 274 270 265 268 265 259 253 253 256 256 259 258
197 210 215 218 227 221 234 254 264 268 271 279 286 291 293 295 295 299 302 303 302 302 301 302 302 301 300 298 293 285 279 277 275 271 268 266 268 264 260 253 255 255 255 254
209 214 183 172 207 241 263 266 270 275 281 288 291 296 297 297 303 305 305 304 303 303 303 303 303 304 305 305 300 290 281 277 277 276 273 270 270 267 265 260 259 257 256 253
175 185 212 233 254 269 271 270 273 282 290 294 299 300 301 306 307 307 308 307 305 304 303 304 306 307 308 308 305 300 291 282 280 279 278 274 274 272 271 267 260 256 261 259
217 229 252 268 275 278 274 278 287 292 295 301 302 304 308 310 312 312 310 308 306 305 305 306 308 312 312 309 308 307 303 295 289 287 287 284 281 276 277 270 266 262 261 265
241 263 270 274 277 279 283 288 292 295 301 302 307 308 312 314 318 314 310 308 305 305 306 308 312 309 304 303 303 303 304 304 297 290 287 288 286 284 281 276 269 272 268 261
261 266 273 277 282 284 287 290 294 299 303 313 313 314 318 320 319 313 310 307 305 305 303 302 304 302 301 303 300 297 292 293 298 299 295 291 289 288 284 279 279 272 275 266
271 272 274 278 282 282 286 290 297 303 315 319 317 319 321 322 318 311 306 305 303 302 299 297 297 298 301 300 300 303 299 297 296 291 287 284 283 282 279 278 276 274 270 270
262 269 277 273 276 283 288 293 299 312 320 323 320 320 321 323 318 309 303 299 301 291 294 295 297 294 293 295 299 302 296 292 292 290 287 284 281 276 273 271 271 270 268 267
267 269 272 281 289 291 291 293 305 315 319 323 323 321 323 324 323 311 305 299 295 288 292 291 291 295 296 297 295 296 295 293 293 292 293 290 287 285 282 279 275 273 270 265
265 275 284 294 300 305 302 302 307 313 318 323 328 326 324 325 327 318 308 300 295 291 287 286 287 291 295 294 292 292 290 289 290 290 292 291 286 282 280 277 275 274 272 271
272 283 291 294 300 306 313 310 308 310 317 319 323 331 328 324 324 324 317 310 303 297 291 289 287 288 289 290 288 289 289 289 289 289 289 288 288 286 283 280 278 276 273 270
284 288 289 290 296 300 305 313 308 308 313 318 317 321 327 325 322 321 321 320 317 310 301 295 292 291 290 290 290 289 289 289 289 289 289 289 289 288 287 287 286 285 282 279
283 286 288 290 294 296 303 308 310 307 309 315 317 316 317 320 320 318 316 317 316 314 311 307 304 301 298 295 293 291 289 288 288 288 289 289 290 291 291 290 290 290 290 288
284 285 287 285 289 295 303 303 310 307 306 308 313 316 316 314 314 315 313 311 311 310 309 308 306 304 303 300 297 294 292 290 289 288 288 289 290 291 291 290 291 292 292 291
280 285 290 290 288 290 298 302 308 309 307 305 306 308 313 313 310 309 310 311 310 308 308 307 306 305 304 301 299 297 296 295 292 291 290 289 289 289 289 290 291 292 292 293
283 286 289 291 290 289 293 300 303 308 307 305 304 306 308 311 310 309 308 309 310 309 308 309 307 305 304 302 300 299 297 295 294 294 292 291 290 289 290 291 292 293 294 295
282 288 292 290 288 290 291 295 300 305 305 304 304 305 303 306 309 308 307 307 308 307 306 305 305 305 304 303 301 300 298 297 296 296 296 295 293 292 292 293 294 295 296 297
283 286 288 288 287 287 289 294 299 301 304 304 303 303 301 302 304 305 306 305 305 304 304 303 303 304 303 303 302 301 299 298 298 298 297 295 295 294 294 295 296 298 299 300
Height
10331 10335 10342 10347 10351 10356 10362 10371 10372 10377 10381 10383 10384 10383 10385 10386 10385 10383 10378 10372 10367 10359 10351 10343 10336 10330 10323 10316 10309 10302 10296 10292 10291 10288 10286 10285 10284 10284 10283 10282 10280 10279 10279 10282
10317 10318 10323 10328 10332 10342 10349 10355 10361 10362 10365 10366 10366 10369 10371 10371 10370 10366 10361 10355 10347 10340 10331 10325 10317 10311 10305 10298 10291 10286 10282 10278 10276 10275 10274 10272 10271 10270 10271 10272 10271 10270 10268 10268
10300 10301 10305 10319 10328 10329 10333 10339 10344 10350 10350 10352 10353 10355 10355 10355 10355 10349 10344 10337 10330 10322 10314 10308 10300 10293 10286 10280 10275 10271 10268 10264 10262 10262 10262 10260 10259 10259 10259 10257 10257 10261 10259 10258
10290 10291 10300 10306 10310 10315 10320 10326 10332 10336 10337 10341 10343 10342 10341 10342 10339 10333 10328 10321 10314 10306 10298 10292 10284 10277 10269 10262 10258 10255 10253 10251 10248 10248 10248 10247 10247 10248 10249 10249 10248 10249 10251 10249
10281 10286 10292 10298 10299 10303 10310 10316 10322 10325 10328 10330 10330 10330 10331 10328 10324 10319 10312 10306 10298 10290 10282 10275 10267 10260 10253 10247 10243 10240 10239 10237 10235 10235 10234 10234 10235 10237 10239 10239 10238 10241 10243 10242
10273 10278 10284 10286 10290 10297 10304 10307 10312 10316 10318 10319 10320 10320 10318 10315 10311 10305 10298 10291 10283 10275 10266 10259 10251 10244 10237 10232 10227 10224 10224 10224 10222 10222 10221 10221 10223 10225 10228 10230 10231 10231 10235 10235
10268 10273 10277 10279 10285 10290 10295 10299 10304 10308 10310 10310 10311 10309 10307 10304 10298 10292 10284 10276 10268 10260 10251 10243 10235 10229 10223 10218 10213 10211 10210 10211 10211 10209 10209 10210 10211 10213 10215 10218 10222 10223 10226 10228
10263 10268 10270 10275 10280 10284 10290 10294 10298 10300 10301 10302 10301 10300 10297 10292 10285 10277 10269 10261 10252 10244 10235 10227 10221 10215 10209 10204 10200 10198 10197 10199 10199 10199 10199 10199 10200 10202 10204 10207 10211 10214 10216 10220
10259 10263 10266 10272 10278 10283 10286 10289 10291 10292 10294 10294 10293 10290 10285 10279 10271 10262 10255 10246 10237 10228 10220 10214 10208 10202 10197 10192 10189 10187 10186 10187 10188 10189 10189 10189 10190 10192 10195 10198 10202 10205 10208 10211
10258 10261 10265 10269 10274 10278 10282 10283 10285 10287 10288 10286 10283 10278 10273 10265 10257 10249 10240 10231 10222 10215 10208 10203 10198 10193 10188 10184 10180 10178 10177 10178 10179 10179 10180 10181 10181 10182 10185 10188 10191 10195 10199 10202
10255 10260 10265 10268 10272 10276 10278 10280 10281 10281 10280 10276 10272 10267 10260 10251 10243 10234 10226 10217 10210 10203 10198 10194 10191 10186 10181 10177 10174 10172 10170 10170 10171 10172 10172 10172 10173 10174 10175 10178 10180 10184 10188 10192
10258 10261 10263 10266 10270 10272 10273 10274 10274 10273 10270 10265 10261 10253 10245 10237 10229 10221 10213 10206 10200 10195 10190 10187 10184 10180 10177 10173 10170 10168 10166 10165 10165 10165 10165 10165 10165 10165 10166 10167 10171 10174 10177 10180
10257 10259 10262 10264 10266 10267 10267 10267 10266 10262 10259 10254 10247 10239 10232 10225 10217 10209 10203 10197 10193 10189 10184 10181 10178 10176 10174 10170 10167 10164 10162 10161 10160 10158 10157 10157 10158 10159 10159 10159 10160 10163 10166 10168
10254 10256 10257 10259 10260 10260 10260 10259 10256 10253 10249 10243 10236 10228 10221 10214 10207 10200 10195 10191 10187 10184 10180 10177 10174 10173 10171 10169 10166 10164 10160 10157 10156 10155 10154 10153 10151 10150 10150 10150 10151 10152 10153 10154
10251 10251 10253 10254 10253 10254 10252 10251 10248 10244 10239 10232 10225 10218 10211 10205 10199 10194 10189 10185 10182 10179 10177 10174 10172 10169 10166 10164 10162 10160 10159 10157 10155 10152 10150 10148 10146 10144 10142 10141 10140 10139 10139 10141
10245 10247 10248 10248 10247 10246 10245 10243 10240 10236 10230 10223 10215 10209 10203 10197 10192 10188 10184 10180 10177 10175 10173 10171 10169 10167 10164 10162 10159 10156 10153 10151 10149 10148 10147 10145 10142 10139 10137 10134 10132 10130 10128 10126
10240 10240 10241 10241 10240 10239 10237 10235 10232 10227 10222 10216 10209 10203 10197 10191 10186 10182 10178 10175 10173 10170 10168 10166 10165 10163 10161 10159 10156 10153 10151 10148 10145 10142 10139 10136 10133 10131 10129 10126 10123 10120 10118 10116
10234 10235 10235 10234 10233 10231 10229 10227 10224 10220 10216 10210 10203 10197 10191 10185 10180 10175 10172 10169 10166 10164 10162 10160 10158 10156 10154 10151 10149 10146 10144 10141 10138 10136 10133 10130 10126 10122 10118 10115 10112 10109 10106 10103
10229 10229 10228 10227 10226 10224 10221 10218 10215 10212 10208 10203 10197 10190 10185 10180 10174 10170 10166 10162 10159 10157 10155 10153 10150 10148 10145 10142 10140 10137 10134 10131 10128 10125 10122 10119 10115 10112 10107 10103 10099 10096 10092 10088
10222 10222 10221 10220 10218 10216 10213 10209 10206 10203 10199 10195 10190 10185 10179 10174 10170 10165 10161 10156 10152 10150 10146 10143 10141 10138 10136 10133 10130 10126 10122 10117 10113 10109 10106 10102 10099 10095 10091 10087 10083 10080 10076 10071
10214 10213 10213 10211 10210 10207 10204 10201 10197 10194 10190 10187 10182 10178 10173 10169 10164 10159 10155 10150 10146 10142 10137 10133 10130 10127 10124 10121 10117 10114 10110 10105 10100 10095 10091 10085 10081 10076 10072 10067 10062 10058 10055 10051
10205 10204 10203 10202 10200 10198 10195 10192 10188 10185 10181 10177 10173 10169 10165 10162 10157 10153 10148 10143 10138 10134 10130 10125 10120 10115 10111 10107 10103 10099 10094 10090 10085 10080 10075 10069 10064 10058 10053 10047 10042 10037 10032 10027
10196 10194 10193 10191 10190 10187 10185 10181 10178 10175 10171 10168 10164 10160 10157 10153 10148 10144 10140 10135 10130 10125 10120 10115 10110 10105 10100 10095 10090 10084 10078 10073 10068 10062 10057 10052 10047 10042 10036 10030 10025 10019 10013 10007
10185 10184 10183 10181 10179 10176 10173 10170 10167 10164 10160 10156 10153 10149 10145 10141 10137 10133 10128 10124 10119 10113 10108 10103 10097 10092 10086 10080 10074 10069 10063 10057 10051 10044 10039 10034 10029 10024 10019 10014 10008 10002 9995 9989
10173 10172 10171 10169 10167 10164 10161 10158 10156 10153 10148 10145 10141 10137 10132 10128 10124 10120 10115 10110 10105 10099 10094 10089 10083 10076 10070 10064 10059 10053 10046 10040 10035 10029 10023 10017 10012 10007 10001 9996 9990 9983 9976 9970
10161 10160 10158 10156 10154 10152 10149 10147 10145 10141 10136 10132 10129 10125 10119 10115 10111 10107 10101 10097 10092 10085 10080 10074 10067 10061 10054 10047 10041 10035 10028 10022 10016 10011 10006 10000 9994 9989 9983 9977 9972 9965 9959 9952
10147 10146 10144 10143 10140 10137 10135 10133 10130 10127 10122 10119 10115 10112 10106 10102 10097 10092 10087 10082 10076 10070 10064 10057 10050 10044 10037 10030 10023 10017 10010 10004 9998 9993 9987 9980 9975 9970 9964 9958 9952 9945 9938 9932